{"data":{"norad_id":64147,"intl_designator":"2025-112B","name":"STARLINK-33926","alt_names":[],"object_type":"PAYLOAD","status":"ACTIVE","operator":null,"country":"US","launch_date":"2025-05-27","launch_site_code":"AFWTR","launch_vehicle":null,"mission":null,"orbit_class":"UNKNOWN","rcs_meters":null,"size_class":null,"mass_kg":null,"dimensions":null,"purposes":["comms"],"wikipedia_slug":null,"has_3d_model":false,"image_url":null,"decayed_at":null,"tle_current":{"epoch":"2026-05-25T03:18:02.592000Z","epoch_age_seconds":62843,"freshness":"FRESH","line1":"1 64147U 25112B   26145.13753000  .00003593  00000+0  25291-3 0  9991","line2":"2 64147  97.4465 196.5358 0001472 102.6845 257.4547 15.05660616 54814","mean_motion":15.05660616,"eccentricity":0.0001472,"inclination_deg":97.4465,"raan_deg":196.5358,"arg_perigee_deg":102.6845,"mean_anomaly_deg":257.4547,"bstar":0.00025291,"rev_number":5481,"period_min":95.639082585926,"perigee_km":548.45884568798,"apogee_km":550.49833571788,"semimajor_km":6927.6155907029,"source":"CELESTRAK","updated_at":"2026-05-25T13:38:20.301541Z"}}}